| time (UTC) | temp F | wind direction | speed knots | gust knots | rain 1hr in | rain 24hr in | rain mn in | humidity % | barometer mb |
| 20260504224804 | 71 | 138 | 5.2 | 8.7 | 0.00 | 0.01 | 0.01 | 80 | 1016.4 |
| 20260504224304 | 71 | 109 | 4.3 | 7.0 | 0.00 | 0.01 | 0.01 | 81 | 1016.4 |
| 20260504223305 | 70 | 132 | 4.3 | 8.7 | 0.00 | 0.01 | 0.01 | 82 | 1016.4 |
| 20260504222804 | 70 | 127 | 3.5 | 8.7 | 0.00 | 0.01 | 0.01 | 82 | 1016.4 |
| 20260504222305 | 70 | 116 | 5.2 | 8.7 | 0.00 | 0.01 | 0.01 | 83 | 1016.4 |
| 20260504221804 | 69 | 117 | 2.6 | 7.8 | 0.00 | 0.01 | 0.01 | 83 | 1016.4 |
| 20260504221304 | 69 | 112 | 2.6 | 7.8 | 0.00 | 0.01 | 0.01 | 84 | 1016.3 |
| 20260504220804 | 69 | 103 | 2.6 | 8.7 | 0.00 | 0.01 | 0.01 | 84 | 1016.2 |
| 20260504220304 | 68 | 155 | 2.6 | 6.1 | 0.00 | 0.01 | 0.01 | 84 | 1016.2 |
| 20260504215804 | 68 | 123 | 2.6 | 6.1 | 0.00 | 0.01 | 0.01 | 84 | 1016.2 |
| 20260504215305 | 68 | 131 | 3.5 | 7.8 | 0.00 | 0.01 | 0.01 | 85 | 1016.2 |
| 20260504214805 | 68 | 136 | 0.9 | 2.6 | 0.00 | 0.01 | 0.01 | 85 | 1016.2 |
| 20260504214304 | 68 | 146 | 0.9 | 2.6 | 0.00 | 0.01 | 0.01 | 85 | 1016.2 |
| 20260504213804 | 67 | 130 | 0.0 | 4.3 | 0.00 | 0.01 | 0.01 | 85 | 1016.1 |
| 20260504213305 | 67 | 97 | 0.9 | 2.6 | 0.00 | 0.01 | 0.01 | 85 | 1016.2 |
| 20260504212805 | 67 | 96 | 0.9 | 2.6 | 0.00 | 0.01 | 0.01 | 85 | 1016.0 |
| 20260504212305 | 67 | 95 | 1.7 | 2.6 | 0.00 | 0.01 | 0.01 | 85 | 1016.0 |
| 20260504211804 | 67 | 91 | 0.9 | 2.6 | 0.00 | 0.01 | 0.01 | 85 | 1015.9 |
| 20260504211305 | 67 | 90 | 0.9 | 1.7 | 0.00 | 0.01 | 0.01 | 85 | 1015.9 |
| 20260504210804 | 67 | 90 | 0.9 | 2.6 | 0.00 | 0.01 | 0.01 | 85 | 1015.8 |
| 20260504205305 | 67 | 90 | 0.0 | 1.7 | 0.00 | 0.01 | 0.01 | 85 | 1015.7 |
| 20260504204804 | 67 | 90 | 0.9 | 2.6 | 0.00 | 0.01 | 0.01 | 85 | 1015.6 |
| 20260504203804 | 66 | 90 | 0.9 | 1.7 | 0.00 | 0.01 | 0.01 | 85 | 1015.6 |
| 20260504203305 | 66 | 90 | 1.7 | 5.2 | 0.00 | 0.01 | 0.01 | 85 | 1015.5 |
| 20260504201804 | 66 | 92 | 1.7 | 2.6 | 0.00 | 0.01 | 0.01 | 85 | 1015.2 |
| 20260504201305 | 66 | 92 | 0.9 | 2.6 | 0.00 | 0.01 | 0.01 | 85 | 1015.2 |
| 20260504195804 | 66 | 92 | 1.7 | 5.2 | 0.00 | 0.01 | 0.01 | 85 | 1015.1 |
| 20260504195305 | 66 | 93 | 3.5 | 6.1 | 0.00 | 0.01 | 0.01 | 85 | 1015.1 |
| 20260504194805 | 66 | 99 | 2.6 | 6.1 | 0.00 | 0.01 | 0.01 | 85 | 1015.2 |
| 20260504194304 | 66 | 132 | 2.6 | 2.6 | 0.00 | 0.01 | 0.01 | 86 | 1015.2 |
| 20260504193805 | 66 | 145 | 2.6 | 4.3 | 0.00 | 0.01 | 0.01 | 86 | 1015.1 |
| 20260504192805 | 66 | 101 | 1.7 | 2.6 | 0.00 | 0.01 | 0.01 | 86 | 1015.0 |
| 20260504192304 | 66 | 99 | 2.6 | 5.2 | 0.00 | 0.01 | 0.01 | 86 | 1014.9 |
| 20260504191805 | 66 | 97 | 0.9 | 2.6 | 0.00 | 0.01 | 0.01 | 86 | 1014.8 |
| 20260504191305 | 66 | 96 | 2.6 | 6.1 | 0.00 | 0.01 | 0.01 | 86 | 1014.8 |
| 20260504190804 | 66 | 98 | 1.7 | 5.2 | 0.00 | 0.01 | 0.01 | 86 | 1014.8 |
| 20260504190304 | 66 | 96 | 2.6 | 5.2 | 0.00 | 0.01 | 0.01 | 86 | 1014.7 |
| 20260504185804 | 66 | 96 | 0.9 | 2.6 | 0.00 | 0.01 | 0.01 | 86 | 1014.7 |
| 20260504185305 | 66 | 96 | 1.7 | 6.1 | 0.00 | 0.01 | 0.01 | 86 | 1014.7 |
| 20260504184304 | 65 | 142 | 0.9 | 2.6 | 0.00 | 0.01 | 0.01 | 86 | 1014.8 |
| 20260504183804 | 65 | 142 | 0.0 | 2.6 | 0.00 | 0.01 | 0.01 | 85 | 1014.7 |
| 20260504183305 | 65 | 142 | 0.9 | 2.6 | 0.00 | 0.01 | 0.01 | 85 | 1014.6 |
| 20260504182806 | 66 | 143 | 0.0 | 0.9 | 0.00 | 0.01 | 0.01 | 85 | 1014.5 |
| 20260504182306 | 66 | 143 | 0.9 | 2.6 | 0.00 | 0.01 | 0.01 | 85 | 1014.5 |
| 20260504181804 | 66 | 143 | 0.9 | 1.7 | 0.00 | 0.01 | 0.01 | 85 | 1014.6 |
| 20260504181304 | 66 | 143 | 0.9 | 2.6 | 0.00 | 0.01 | 0.01 | 85 | 1014.5 |
| 20260504180804 | 66 | 148 | 1.7 | 2.6 | 0.00 | 0.01 | 0.01 | 85 | 1014.6 |
| 20260504175805 | 66 | 146 | 0.9 | 2.6 | 0.00 | 0.01 | 0.01 | 85 | 1014.7 |
| 20260504175305 | 66 | 146 | 1.7 | 2.6 | 0.00 | 0.01 | 0.01 | 85 | 1014.7 |
| 20260504174305 | 66 | 146 | 0.9 | 2.6 | 0.00 | 0.01 | 0.01 | 85 | 1014.8 |
| 20260504173304 | 66 | 145 | 2.6 | 6.1 | 0.00 | 0.01 | 0.01 | 86 | 1014.9 |
| 20260504172804 | 66 | 138 | 1.7 | 6.1 | 0.00 | 0.01 | 0.01 | 86 | 1015.0 |
| 20260504171804 | 66 | 153 | 1.7 | 2.6 | 0.00 | 0.01 | 0.01 | 85 | 1015.1 |
| 20260504171304 | 66 | 155 | 0.9 | 2.6 | 0.00 | 0.01 | 0.01 | 85 | 1015.1 |
| 20260504170804 | 65 | 155 | 1.7 | 5.2 | 0.00 | 0.01 | 0.01 | 85 | 1015.2 |
| 20260504170305 | 65 | 156 | 1.7 | 6.1 | 0.00 | 0.01 | 0.01 | 85 | 1015.1 |
| 20260504150805 | 66 | 160 | 0.9 | 2.6 | 0.00 | 0.01 | 0.01 | 85 | 1016.2 |
| 20260504141305 | 68 | 107 | 0.0 | 2.6 | 0.01 | 0.01 | 0.01 | 85 | 1017.0 |
| 20260504140804 | 68 | 107 | 1.7 | 2.6 | 0.01 | 0.01 | 0.01 | 85 | 1017.1 |
| 20260504140304 | 68 | 108 | 2.6 | 5.2 | 0.01 | 0.01 | 0.01 | 84 | 1017.1 |
| 20260504130804 | 68 | 150 | 2.6 | 7.0 | 0.00 | 0.00 | 0.00 | 83 | 1017.1 |
| 20260504130304 | 69 | 153 | 2.6 | 6.1 | 0.00 | 0.00 | 0.00 | 82 | 1017.1 |
| 20260504120304 | 69 | 119 | 0.9 | 2.6 | 0.00 | 0.00 | 0.00 | 82 | 1017.0 |
| 20260504110304 | 69 | 121 | 2.6 | 6.1 | 0.00 | 0.00 | 0.00 | 81 | 1017.1 |
| 20260504100304 | 70 | 127 | 4.3 | 8.7 | 0.00 | 0.00 | 0.00 | 80 | 1016.5 |
| 20260504081305 | 73 | 80 | 0.9 | 1.7 | 0.00 | 0.00 | 0.00 | 74 | 1014.7 |
| 20260504080804 | 74 | 80 | 0.9 | 1.7 | 0.00 | 0.00 | 0.00 | 73 | 1014.7 |
| 20260504080304 | 74 | 80 | 0.9 | 2.6 | 0.00 | 0.00 | 0.00 | 72 | 1014.6 |
| 20260504070305 | 76 | 57 | 1.7 | 5.2 | 0.00 | 0.00 | 0.00 | 70 | 1014.1 |
| 20260504050305 | 80 | 54 | 2.6 | 10.4 | 0.00 | 0.00 | 0.00 | 69 | 1013.4 |
| 20260504044804 | 78 | 31 | 2.6 | 6.1 | 0.00 | 0.00 | 0.00 | 67 | 1013.4 |
| 20260504044304 | 78 | 17 | 4.3 | 7.8 | 0.00 | 0.00 | 0.00 | 66 | 1013.5 |
| 20260504043805 | 78 | 79 | 4.3 | 7.8 | 0.00 | 0.00 | 0.00 | 65 | 1013.5 |
| 20260504043304 | 78 | 54 | 2.6 | 6.1 | 0.00 | 0.00 | 0.00 | 67 | 1013.5 |
| 20260504042804 | 78 | 93 | 6.1 | 10.4 | 0.00 | 0.00 | 0.00 | 67 | 1013.6 |
| 20260504042304 | 78 | 117 | 3.5 | 7.8 | 0.00 | 0.00 | 0.00 | 66 | 1013.7 |
| 20260504041805 | 77 | 3 | 0.0 | 0.0 | 0.00 | 0.00 | 0.00 | 71 | 1013.7 |
| 20260504040804 | 77 | 3 | 0.0 | 0.0 | 0.00 | 0.00 | 0.00 | 71 | 1013.7 |
| 20260504035804 | 77 | 3 | 0.0 | 0.0 | 0.00 | 0.00 | 0.00 | 71 | 1013.9 |
| 20260504034804 | 77 | 3 | 0.0 | 0.0 | 0.00 | 0.00 | 0.00 | 71 | 1014.0 |
| 20260504034304 | 77 | 3 | 0.0 | 0.0 | 0.00 | 0.00 | 0.00 | 71 | 1014.0 |
| 20260504033804 | 77 | 3 | 0.0 | 0.0 | 0.00 | 0.00 | 0.00 | 71 | 1014.0 |
| 20260504033304 | 77 | 3 | 0.0 | 2.6 | 0.00 | 0.00 | 0.00 | 71 | 1014.0 |
| 20260504032805 | 77 | 115 | 2.6 | 2.6 | 0.00 | 0.00 | 0.00 | 71 | 1014.1 |
| 20260504032304 | 77 | 115 | 2.6 | 7.0 | 0.00 | 0.00 | 0.00 | 71 | 1014.2 |
| 20260504030805 | 78 | 137 | 5.2 | 8.7 | 0.00 | 0.00 | 0.00 | 70 | 1014.4 |
| 20260504025805 | 79 | 103 | 6.1 | 10.4 | 0.00 | 0.00 | 0.00 | 68 | 1014.4 |
| 20260504025304 | 80 | 146 | 7.0 | 8.7 | 0.00 | 0.00 | 0.00 | 67 | 1014.4 |
| 20260504024804 | 80 | 119 | 4.3 | 12.2 | 0.00 | 0.00 | 0.00 | 66 | 1014.3 |
| 20260504024304 | 80 | 133 | 6.1 | 13.0 | 0.00 | 0.00 | 0.00 | 64 | 1014.4 |
| 20260504023804 | 80 | 92 | 10.4 | 10.4 | 0.00 | 0.00 | 0.00 | 64 | 1014.4 |
| 20260504023304 | 80 | 87 | 7.0 | 10.4 | 0.00 | 0.00 | 0.00 | 64 | 1014.5 |
| 20260504022804 | 79 | 89 | 7.8 | 12.2 | 0.00 | 0.00 | 0.00 | 65 | 1014.5 |
| 20260504022305 | 79 | 85 | 9.6 | 13.0 | 0.00 | 0.00 | 0.00 | 63 | 1014.5 |
| 20260504021804 | 79 | 100 | 6.1 | 11.3 | 0.00 | 0.00 | 0.00 | 65 | 1014.5 |
| 20260504021305 | 80 | 110 | 7.8 | 10.4 | 0.00 | 0.00 | 0.00 | 64 | 1014.5 |
| 20260504020805 | 81 | 96 | 6.1 | 7.0 | 0.00 | 0.00 | 0.00 | 65 | 1014.5 |
| 20260504015804 | 80 | 90 | 2.6 | 10.4 | 0.00 | 0.00 | 0.00 | 65 | 1014.7 |
| 20260504015304 | 80 | 105 | 5.2 | 12.2 | 0.00 | 0.00 | 0.00 | 66 | 1014.8 |
| 20260504014304 | 79 | 104 | 5.2 | 7.8 | 0.00 | 0.00 | 0.00 | 67 | 1015.0 |
| 20260504013804 | 79 | 103 | 3.5 | 6.1 | 0.00 | 0.00 | 0.00 | 67 | 1015.1 |
| 20260504013304 | 79 | 96 | 3.5 | 6.1 | 0.00 | 0.00 | 0.00 | 67 | 1015.2 |
| 20260504012804 | 80 | 57 | 5.2 | 10.4 | 0.00 | 0.00 | 0.00 | 67 | 1015.3 |
| 20260504012304 | 79 | 48 | 5.2 | 8.7 | 0.00 | 0.00 | 0.00 | 67 | 1015.5 |
| 20260504011804 | 79 | 71 | 5.2 | 8.7 | 0.00 | 0.00 | 0.00 | 67 | 1015.5 |
| 20260504011304 | 79 | 75 | 5.2 | 11.3 | 0.00 | 0.00 | 0.00 | 67 | 1015.5 |
| 20260504010304 | 79 | 65 | 5.2 | 8.7 | 0.00 | 0.00 | 0.00 | 69 | 1015.6 |
| 20260504005804 | 78 | 83 | 2.6 | 8.7 | 0.00 | 0.00 | 0.00 | 69 | 1015.8 |
| 20260504005305 | 78 | 49 | 7.0 | 11.3 | 0.00 | 0.00 | 0.00 | 71 | 1015.8 |
| 20260504004804 | 78 | 50 | 3.5 | 7.8 | 0.00 | 0.00 | 0.00 | 71 | 1015.8 |
| 20260504004305 | 77 | 54 | 6.1 | 11.3 | 0.00 | 0.00 | 0.00 | 71 | 1015.8 |
| 20260504003304 | 77 | 83 | 5.2 | 7.8 | 0.00 | 0.00 | 0.00 | 69 | 1016.0 |
| 20260504002804 | 77 | 75 | 4.3 | 8.7 | 0.00 | 0.00 | 0.00 | 69 | 1016.0 |
| 20260504002305 | 77 | 61 | 2.6 | 7.0 | 0.00 | 0.00 | 0.00 | 70 | 1016.0 |
| 20260504001804 | 77 | 61 | 3.5 | 7.0 | 0.00 | 0.00 | 0.00 | 71 | 1016.0 |
| 20260504001306 | 76 | 36 | 4.3 | 7.8 | 0.00 | 0.00 | 0.00 | 72 | 1016.1 |
| 20260504000804 | 76 | 71 | 4.3 | 7.8 | 0.00 | 0.00 | 0.00 | 72 | 1016.1 |
| 20260504000304 | 76 | 81 | 5.2 | 7.8 | 0.00 | 0.00 | 0.00 | 70 | 1016.2 |
| 20260503235804 | 76 | 55 | 3.5 | 7.0 | 0.00 | 0.00 | 0.00 | 72 | 1016.2 |
| 20260503235304 | 76 | 116 | 2.6 | 7.8 | 0.00 | 0.00 | 0.00 | 73 | 1016.1 |
| 20260503234804 | 76 | 71 | 1.7 | 7.0 | 0.00 | 0.00 | 0.00 | 73 | 1016.2 |
| 20260503234305 | 75 | 60 | 2.6 | 5.2 | 0.00 | 0.00 | 0.00 | 75 | 1016.1 |
| 20260503233804 | 75 | 78 | 2.6 | 6.1 | 0.00 | 0.00 | 0.00 | 75 | 1016.1 |
| 20260503233305 | 74 | 97 | 3.5 | 7.0 | 0.00 | 0.00 | 0.00 | 76 | 1016.2 |
| 20260503232804 | 74 | 90 | 2.6 | 2.6 | 0.00 | 0.00 | 0.00 | 77 | 1016.2 |
| 20260503232305 | 73 | 84 | 1.7 | 6.1 | 0.00 | 0.00 | 0.00 | 76 | 1016.2 |
| 20260503231804 | 73 | 92 | 3.5 | 6.1 | 0.00 | 0.00 | 0.00 | 77 | 1016.2 |
| 20260503231304 | 72 | 3 | 0.0 | 0.0 | 0.00 | 0.00 | 0.00 | 79 | 1016.1 |
| 20260503230817 | 72 | 3 | 0.0 | 0.0 | 0.00 | 0.00 | 0.00 | 79 | 1016.1 |
| 20260503230304 | 72 | 3 | 0.0 | 0.0 | 0.00 | 0.00 | 0.00 | 79 | 1016.0 |
| 20260503225804 | 72 | 53 | 2.6 | 2.6 | 0.00 | 0.00 | 0.00 | 79 | 1016.0 |
| 20260503225305 | 72 | 76 | 2.6 | 2.6 | 0.00 | 0.00 | 0.00 | 79 | 1016.0 |